Flag for Canada Weather past 2 weeks in Coral Harbour, Nunavut, Canada

21 °F

Partly sunny.

Feels Like: 10 °F
Forecast: 17 / 20 °F
Wind: 10 mph from North

Location: Coral Harbour

Current Time: Oct 9, 2015 at 11:29:02 AM

Latest Report: Oct 9, 2015 at 11:00 AM

Visibility: 15 mi

Pressure: 29.65 "Hg

Humidity: 80%

Dew point: 16 °F

Location of Coral HarbourLocation

Historic Weather in Coral Harbour — Graph


Coral Harbour temperature yesterday

Maximum temperature yesterday: 23 °F (at 5:00 PM)
Minimum temperature yesterday: 14 °F (at 1:00 AM)
Average temperature yesterday: 19 °F

Past Weeks' High & Low Weather Summary

High45 °F (Oct 3, 2:00 PM)100% (Sep 26, 5:54 AM)30.47 "Hg (Sep 26, 5:54 AM)
Low14 °F (Oct 8, 1:00 AM)64% (Sep 25, 12:00 PM)29.11 "Hg (Sep 28, 9:00 AM)
Average30 °F84%29.91 "Hg
* Reported Sep 24 10:00 AM — Oct 9 10:00 AM, Coral Harbour, Weather by CustomWeather, © 2015

Note: Actual official high and low records may vary slightly from our data, if they occured in-between our weather recording intervals... More about our weather records


Coral Harbour weather history for previous 24 hours

Time TempWeatherWind HumidityBarometerVisibility
10:00 AM
Fri, Oct 9
19 °FMostly cloudy.9 mph79%29.65 "Hg15 mi
9:00 AM19 °FLight snow. Mostly cloudy.9 mph79%29.66 "Hg15 mi
8:00 AM18 °FLight snow. Overcast.10 mph86%29.66 "Hg15 mi
7:00 AM19 °FLight snow. Overcast.8 mph86%29.67 "Hg12 mi
6:00 AM19 °FLight snow. Overcast.8 mph86%29.67 "Hg12 mi
5:00 AM19 °FLight snow. Passing clouds.8 mph86%29.67 "Hg12 mi
4:00 AM19 °FLight snow. Passing clouds.7 mph93%29.67 "Hg8 mi
3:00 AM19 °FLight snow. Partly cloudy.7 mph93%29.67 "Hg8 mi
2:00 AM19 °FLight snow. Overcast.5 mph93%29.68 "Hg6 mi
1:00 AM19 °FLight snow. Overcast.6 mph93%29.69 "Hg6 mi
12:00 AM21 °FLight snow. Overcast.5 mph86%29.70 "Hg6 mi
11:00 PM
Thu, Oct 8
21 °FLight snow. Overcast.5 mph86%29.71 "Hg15 mi
10:00 PM21 °FLight snow. Overcast.2 mph86%29.72 "Hg15 mi
9:00 PM21 °FLight snow. Overcast.No wind86%29.73 "Hg15 mi
8:00 PM21 °FLight snow. Overcast.2 mph86%29.75 "Hg12 mi
7:00 PM21 °FOvercast.5 mph80%29.75 "Hg15 mi
6:00 PM23 °FOvercast.2 mph74%29.76 "Hg15 mi
5:00 PM23 °FOvercast.2 mph74%29.76 "Hg15 mi
4:00 PM21 °FOvercast.3 mph74%29.77 "Hg15 mi
3:00 PM21 °FOvercast.5 mph68%29.77 "Hg15 mi
2:00 PM21 °FLow clouds.5 mph68%29.78 "Hg15 mi
1:00 PM21 °FLow clouds.2 mph68%29.78 "Hg15 mi
12:00 PM19 °FMostly cloudy.No wind73%29.79 "Hg15 mi
11:00 AM19 °FOvercast.5 mph79%29.80 "Hg15 mi
Weather by CustomWeather, © 2015

See weather overviewHow to use our weather pages